Regional Weather Roundup
Issued by NWS

Home | Current Version | Previous Version | Text Only | Print | Product List | Glossary Off
Versions: 1 2 3 4 5 6 7 8 9 10 11 12 13 14 15 16 17 18 19 20 21 22 23 24 25 26 27 28 29 30 31 32 33 34 35 36 37 38 39 40 41 42 43 44 45 46 47 48 49 50

000
ASUS43 KTOP 282208
RWRKS

WEATHER ROUNDUP FOR KANSAS
NATIONAL WEATHER SERVICE GOODLAND KS
400 PM CST WED JAN 28 2015

NOTE:  "FAIR" INDICATES FEW OR NO CLOUDS BELOW 12,000 FEET WITH NO
SIGNIFICANT WEATHER AND/OR OBSTRUCTIONS TO VISIBILITY.

KSZ001>006-013>018-027>032-041>047-282300-
NORTHWEST KANSAS

CITY           SKY/WX    TMP DP  RH WIND       PRES   REMARKS
GOODLAND       SUNNY     63  31  30 NW36G48   29.95R
HAYS           SUNNY     72  28  20 NW21G30   29.81S
HILL CITY      SUNNY     71  29  21 NW20G31   29.83R
RUSSELL        SUNNY     72  31  22 NW24G33   29.79R
$$

KSZ061>065-074>080-084>089-282300-
SOUTHWEST KANSAS

CITY           SKY/WX    TMP DP  RH WIND       PRES   REMARKS
DODGE CITY     MOSUNNY   69  27  20 NW20G31   29.90R
ELKHART          N/A     67  26  21 NW10        N/A
GARDEN CITY    MOSUNNY   70  25  18 N23G29    29.93R
LIBERAL        PTSUNNY   70  30  23 NW13G21   29.99R
PRATT          SUNNY     73  28  19 NW17      29.86R
$$

KSZ066>073-081>083-090>101-282300-
SOUTHEAST KANSAS

CITY           SKY/WX    TMP DP  RH WIND       PRES   REMARKS
CHANUTE        PTSUNNY   72  40  31 S21G30    29.76F
COFFEYVILLE    PTSUNNY   71  42  35 S17G28    29.79F
HUTCHINSON     SUNNY     74  32  21 NW9       29.79F
MEDICINE LODGE   N/A     77  31  18 N9        29.82F
NEWTON         MOSUNNY   70  34  26 W12       29.82S
PARSONS        PTSUNNY   71  42  35 S15G25    29.79F
WICHITA INTL   MOSUNNY   71  33  24 W13       29.81R
WICHITA JABRA  PTSUNNY   69  35  28 W16       29.80R
WICHITA MCCONL PTSUNNY   70  37  30 SW13      29.81R
WINFIELD       PTSUNNY   73  32  22 SW20G28   29.82R
$$

KSZ007>012-019>026-033>040-048>060-102>105-282300-
NORTHEAST KANSAS

CITY           SKY/WX    TMP DP  RH WIND       PRES   REMARKS
CONCORDIA      SUNNY     71  33  24 NW15      29.72R
EMPORIA        PTSUNNY   70  38  31 W17G31    29.76R
LAWRENCE       PTSUNNY   73  37  27 S15       29.69F
MANHATTAN      CLOUDY    68  36  30 W15G22    29.72R
MARYSVILLE     PTSUNNY   64  36  34 W14       29.70R
OLATHE IND     PTSUNNY   71  38  29 S21G29    29.71F
OLATHE EXE     PTSUNNY   72  38  29 S17G28    29.70F
SALINA         SUNNY     73  32  22 NW8       29.76S
TOPEKA BILLARD PTSUNNY   73  38  27 SW22G33   29.70R
TOPEKA FORBES  PTSUNNY   74  38  27 SW22G31   29.70R
$$



USA.gov is the U.S. government's official web portal to all federal, state and local government web resources and services.